Terug naar catalogus

CZ-6A DEB

ActiefSSO
NORAD 55868·DEBRIS·🇨🇳 China

Gelanceerd Nov 11, 2022 vanaf Taiyuan Satellite Launch Center

Loading…

Volgende Passages (komende 24 uur)

TLE

VersSource: Space-Track

Epoch: Sep 14, 2026, 14:43 UTC

1 55868U 22151ZQ  26257.61334065  .00006208  00000-0  11724-2 0  9996
2 55868  98.5854 309.3364 0065223  37.5438 323.0291 14.63445221122040

Volg CZ-6A DEB in realtime met AllMySat

Download on the App Store